• In Uzbekistan
  • List of Countries
  • For 7 days
  • Water Temperature
  • Weather Map
  • Weather Widgets
  • user-avatar
    Login

    Hourly Weather Kazan'

    Today, 19 September, Thursday

    Time Temperature Precipitation Wind Pressure Humidity
    00:00 +9°C° 0 mm 1 mps 742 mmHg 78%
    01:00 +9°C° 0.2 mm 1 mps 741 mmHg 81%
    02:00 +8°C° 0.2 mm 2 mps 740 mmHg 84%
    03:00 +9°C° 0 mm 1 mps 739 mmHg 86%
    04:00 +8°C° 0.2 mm 2 mps 739 mmHg 87%
    05:00 +7°C° 0.2 mm 3 mps 738 mmHg 88%
    06:00 +7°C° 0.2 mm 3 mps 738 mmHg 90%
    07:00 +7°C° 0 mm 4 mps 738 mmHg 86%
    08:00 +7°C° 0 mm 5 mps 739 mmHg 82%
    09:00 +9°C° 0 mm 6 mps 740 mmHg 79%
    10:00 +9°C° 0 mm 7 mps 741 mmHg 73%
    11:00 +10°C° 0 mm 7 mps 742 mmHg 68%
    12:00 +11°C° 0 mm 7 mps 743 mmHg 63%
    13:00 +11°C° 0.2 mm 7 mps 744 mmHg 63%
    14:00 +11°C° 0.2 mm 7 mps 745 mmHg 64%
    15:00 +11°C° 0.2 mm 7 mps 746 mmHg 64%
    16:00 +10°C° 0.2 mm 6 mps 746 mmHg 70%
    17:00 +9°C° 0.2 mm 6 mps 747 mmHg 76%
    18:00 +8°C° 0.2 mm 5 mps 748 mmHg 82%
    19:00 +7°C° 0 mm 5 mps 749 mmHg 85%
    20:00 +6°C° 0 mm 4 mps 749 mmHg 89%
    21:00 +6°C° 0 mm 4 mps 750 mmHg 92%
    22:00 +6°C° 0.1 mm 4 mps 750 mmHg 91%
    23:00 +6°C° 0.1 mm 4 mps 751 mmHg 91%

    Tomorrow, 20 September, Friday

    Time Temperature Precipitation Wind Pressure Humidity
    00:00 +6°C° 0.1 mm 4 mps 751 mmHg 91%
    01:00 +6°C° 0.1 mm 4 mps 751 mmHg 92%
    02:00 +5°C° 0.1 mm 3 mps 752 mmHg 93%
    03:00 +5°C° 0.1 mm 3 mps 752 mmHg 94%
    04:00 +4°C° 0 mm 3 mps 753 mmHg 95%
    05:00 +5°C° 0 mm 2 mps 753 mmHg 95%
    06:00 +5°C° 0 mm 2 mps 753 mmHg 96%
    07:00 +6°C° 0.1 mm 2 mps 753 mmHg 89%
    08:00 +7°C° 0.1 mm 2 mps 754 mmHg 83%
    09:00 +8°C° 0.1 mm 2 mps 754 mmHg 77%
    10:00 +9°C° 0.1 mm 2 mps 754 mmHg 71%
    11:00 +10°C° 0.1 mm 2 mps 754 mmHg 65%
    12:00 +12°C° 0.1 mm 2 mps 754 mmHg 59%
    13:00 +12°C° 0.3 mm 2 mps 754 mmHg 62%
    14:00 +12°C° 0.3 mm 2 mps 754 mmHg 64%
    15:00 +10°C° 0.3 mm 2 mps 754 mmHg 66%
    16:00 +9°C° 0.2 mm 2 mps 753 mmHg 72%
    17:00 +10°C° 0.2 mm 1 mps 753 mmHg 77%
    18:00 +9°C° 0.2 mm 1 mps 753 mmHg 83%
    19:00 +8°C° 0 mm 1 mps 753 mmHg 84%
    20:00 +8°C° 0 mm 1 mps 753 mmHg 85%
    21:00 +7°C° 0 mm 1 mps 753 mmHg 86%
    22:00 +7°C° 0 mm 1 mps 753 mmHg 86%
    23:00 +7°C° 0 mm 1 mps 752 mmHg 86%

    Day after tomorrow, 21 September, Saturday

    Time Temperature Precipitation Wind Pressure Humidity
    00:00 +7°C° 0 mm 1 mps 752 mmHg 86%
    01:00 +8°C° 0.2 mm 1 mps 752 mmHg 86%
    02:00 +7°C° 0.2 mm 2 mps 751 mmHg 87%
    03:00 +7°C° 0.2 mm 2 mps 751 mmHg 88%
    04:00 +7°C° 0.5 mm 2 mps 751 mmHg 90%
    05:00 +6°C° 0.5 mm 2 mps 751 mmHg 91%
    06:00 +6°C° 0.5 mm 2 mps 751 mmHg 93%
    07:00 +5°C° 0 mm 3 mps 751 mmHg 88%
    08:00 +7°C° 0 mm 3 mps 751 mmHg 84%
    09:00 +7°C° 0 mm 4 mps 751 mmHg 79%
    10:00 +8°C° 0 mm 4 mps 751 mmHg 73%
    11:00 +8°C° 0 mm 4 mps 751 mmHg 67%
    12:00 +10°C° 0 mm 4 mps 751 mmHg 61%
    13:00 +10°C° 0 mm 4 mps 751 mmHg 60%
    14:00 +10°C° 0 mm 4 mps 750 mmHg 60%
    15:00 +10°C° 0 mm 4 mps 750 mmHg 60%
    16:00 +9°C° 0 mm 3 mps 750 mmHg 65%
    17:00 +8°C° 0 mm 3 mps 750 mmHg 70%
    18:00 +6°C° 0 mm 2 mps 750 mmHg 76%
    19:00 +6°C° 0 mm 2 mps 750 mmHg 77%
    20:00 +5°C° 0 mm 2 mps 750 mmHg 78%
    21:00 +5°C° 0 mm 2 mps 749 mmHg 80%
    22:00 +5°C° 0 mm 1 mps 749 mmHg 80%
    23:00 +5°C° 0 mm 1 mps 749 mmHg 80%

    22 September, Sunday

    Time Temperature Precipitation Wind Pressure Humidity
    00:00 +5°C° 0 mm 1 mps 748 mmHg 81%
    01:00 +5°C° 0 mm 1 mps 748 mmHg 80%
    02:00 +3°C° 0 mm 2 mps 748 mmHg 80%
    03:00 +3°C° 0 mm 2 mps 748 mmHg 80%
    04:00 +3°C° 0.1 mm 2 mps 747 mmHg 84%
    05:00 +3°C° 0.1 mm 3 mps 747 mmHg 87%
    06:00 +3°C° 0.1 mm 3 mps 747 mmHg 90%
    07:00 +3°C° 1 mm 3 mps 747 mmHg 90%
    08:00 +3°C° 1 mm 3 mps 746 mmHg 90%
    09:00 +3°C° 1 mm 3 mps 746 mmHg 90%
    10:00 +4°C° 0.1 mm 3 mps 746 mmHg 83%
    11:00 +5°C° 0.1 mm 3 mps 746 mmHg 75%
    12:00 +8°C° 0.1 mm 3 mps 745 mmHg 67%
    13:00 +8°C° 0 mm 3 mps 745 mmHg 62%
    14:00 +8°C° 0 mm 2 mps 745 mmHg 57%
    15:00 +9°C° 0 mm 2 mps 744 mmHg 52%
    16:00 +8°C° 0 mm 2 mps 744 mmHg 57%
    17:00 +8°C° 0 mm 1 mps 744 mmHg 61%
    18:00 +6°C° 0 mm 1 mps 744 mmHg 65%
    19:00 +6°C° 0 mm 1 mps 744 mmHg 66%
    20:00 +6°C° 0 mm 1 mps 743 mmHg 67%
    21:00 +6°C° 0 mm 1 mps 743 mmHg 67%
    22:00 +4°C° 0 mm 2 mps 743 mmHg 70%
    23:00 +4°C° 0 mm 2 mps 743 mmHg 74%

    23 September, Monday

    Time Temperature Precipitation Wind Pressure Humidity
    00:00 +2°C° 0 mm 3 mps 742 mmHg 77%
    01:00 +2°C° 0 mm 3 mps 742 mmHg 80%
    02:00 +1°C° 0 mm 4 mps 742 mmHg 83%
    03:00 0°C° 0 mm 4 mps 742 mmHg 86%
    04:00 0°C° 0 mm 4 mps 743 mmHg 86%
    05:00 0°C° 0 mm 4 mps 743 mmHg 87%
    06:00 -1°C° 0 mm 5 mps 743 mmHg 87%
    07:00 -1°C° 0 mm 6 mps 744 mmHg 85%
    08:00 +1°C° 0 mm 6 mps 744 mmHg 82%
    09:00 +2°C° 0 mm 7 mps 745 mmHg 79%
    10:00 +2°C° 0 mm 7 mps 745 mmHg 78%
    11:00 +2°C° 0 mm 7 mps 746 mmHg 77%
    12:00 +1°C° 0 mm 8 mps 746 mmHg 76%
    13:00 +2°C° 0.1 mm 8 mps 747 mmHg 72%
    14:00 +2°C° 0.1 mm 8 mps 747 mmHg 68%
    15:00 +4°C° 0.1 mm 8 mps 748 mmHg 64%
    16:00 +3°C° 0 mm 7 mps 748 mmHg 67%
    17:00 +2°C° 0 mm 6 mps 749 mmHg 69%
    18:00 +1°C° 0 mm 5 mps 749 mmHg 72%
    19:00 +1°C° 0 mm 6 mps 750 mmHg 75%
    20:00 +1°C° 0 mm 6 mps 750 mmHg 78%
    21:00 0°C° 0 mm 7 mps 750 mmHg 81%
    22:00 0°C° 0 mm 7 mps 750 mmHg 80%
    23:00 +1°C° 0 mm 6 mps 750 mmHg 80%

    24 September, Tuesday

    Time Temperature Precipitation Wind Pressure Humidity
    00:00 +1°C° 0 mm 6 mps 751 mmHg 80%
    01:00 +1°C° 0 mm 6 mps 751 mmHg 82%
    02:00 +1°C° 0 mm 6 mps 751 mmHg 84%
    03:00 0°C° 0 mm 7 mps 751 mmHg 86%
    04:00 -1°C° 0 mm 7 mps 751 mmHg 88%
    05:00 -1°C° 0 mm 7 mps 751 mmHg 91%
    06:00 -1°C° 0 mm 6 mps 751 mmHg 93%
    07:00 -1°C° 0.1 mm 6 mps 752 mmHg 88%
    08:00 +1°C° 0.1 mm 6 mps 752 mmHg 83%
    09:00 +2°C° 0.1 mm 6 mps 752 mmHg 78%
    10:00 +2°C° 0.1 mm 6 mps 753 mmHg 78%
    11:00 +2°C° 0.1 mm 6 mps 753 mmHg 77%
    12:00 +3°C° 0.1 mm 6 mps 754 mmHg 76%
    13:00 +3°C° 0.1 mm 6 mps 754 mmHg 73%
    14:00 +3°C° 0.1 mm 6 mps 754 mmHg 69%
    15:00 +4°C° 0.1 mm 6 mps 754 mmHg 66%
    16:00 +3°C° 0 mm 6 mps 755 mmHg 71%
    17:00 +2°C° 0 mm 5 mps 755 mmHg 75%
    18:00 +1°C° 0 mm 4 mps 755 mmHg 80%
    19:00 0°C° 0 mm 4 mps 755 mmHg 83%
    20:00 0°C° 0 mm 4 mps 756 mmHg 86%
    21:00 -1°C° 0 mm 4 mps 756 mmHg 89%
    22:00 0°C° 0 mm 3 mps 756 mmHg 90%
    23:00 0°C° 0 mm 3 mps 756 mmHg 92%
    Show more